Wind_Speed
40 40 41 40 39 36 35 33 8 19 37 17 9 18 41 26 29 40 30 26 27 24 23 12 19 23 20 21 26 27 22 6 13 16 16 16 18 16 16 9 9 5 3 3
40 42 41 42 42 42 43 19 14 23 46 12 16 24 34 34 27 32 28 28 26 22 19 12 15 21 19 13 11 20 19 16 11 16 15 16 18 16 17 16 10 14 4 7
37 45 41 42 43 46 49 17 7 15 38 39 25 26 35 33 40 29 35 26 25 21 17 20 12 14 16 13 9 15 23 15 16 12 14 11 18 18 19 18 8 5 8 13
38 36 38 40 51 52 54 22 8 16 15 21 30 27 18 29 26 37 38 28 29 22 13 14 18 26 9 2 11 3 5 20 21 18 18 17 20 21 20 21 14 13 19 19
40 40 39 40 42 46 58 15 8 29 16 37 29 26 30 33 22 27 35 30 30 24 18 14 16 20 8 14 9 11 10 14 18 20 19 21 19 18 20 21 20 18 18 17
43 44 44 45 46 49 47 30 34 25 23 23 22 24 33 34 28 27 36 32 24 23 18 11 2 9 20 21 13 10 12 12 14 17 18 18 19 18 17 14 16 14 16 14
46 48 49 49 52 55 50 35 34 9 8 17 22 31 34 34 29 28 29 37 27 32 18 9 3 10 19 28 3 5 5 10 10 6 5 24 9 14 14 15 16 15 16 14
47 49 51 52 52 57 57 28 35 20 3 18 24 30 27 29 31 23 25 34 43 38 17 7 4 3 4 12 8 4 3 4 5 6 12 12 15 12 11 12 16 18 19 18
44 48 49 51 54 57 54 36 44 33 13 14 36 16 29 19 18 20 29 41 32 28 12 8 9 5 6 6 4 7 7 6 7 3 10 12 4 12 17 11 12 12 14 12
45 52 51 52 55 54 58 39 51 34 7 17 22 11 17 27 22 16 18 29 21 24 14 14 11 10 16 7 6 5 3 7 11 10 7 6 6 13 21 16 7 11 16 18
34 46 47 51 55 59 60 48 46 37 16 10 11 15 12 22 26 14 14 10 8 1 9 13 8 6 10 7 12 10 10 8 5 7 5 13 9 10 18 9 21 11 16 8
30 36 40 45 57 64 50 32 45 34 16 6 7 11 11 21 26 18 21 25 11 12 7 6 6 4 5 9 6 7 7 7 5 6 4 12 14 14 12 15 15 17 12 16
31 32 35 56 62 57 43 33 42 29 17 7 12 11 16 17 18 16 21 21 22 10 21 5 5 5 6 4 5 6 2 13 10 10 11 12 19 24 21 18 15 16 12 11
29 37 38 46 48 51 38 40 36 28 13 1 2 8 8 15 19 10 13 15 21 21 37 7 4 3 9 5 4 8 7 7 14 11 12 13 21 21 24 9 12 14 10 7
39 39 41 43 52 43 36 34 37 31 11 4 2 8 12 11 9 14 10 11 15 9 4 3 6 7 5 3 5 6 11 11 8 5 7 1 7 6 13 24 24 24 14 9
41 43 49 49 43 40 36 17 28 29 15 4 5 3 7 14 10 13 20 11 10 7 11 7 9 10 4 2 4 9 16 20 23 12 19 19 14 14 16 15 13 13 14 12
36 40 47 46 39 33 14 8 24 31 8 2 1 1 3 13 13 5 11 13 9 7 7 5 9 11 14 3 6 7 11 11 8 8 12 8 5 4 14 17 16 13 16 13
41 46 44 36 31 23 16 14 26 29 5 3 1 1 2 11 6 4 8 10 6 8 5 8 7 10 2 3 6 11 13 17 17 13 8 7 9 12 9 10 10 12 6 6
48 42 37 33 20 8 11 22 25 18 7 3 2 2 2 8 4 6 9 10 1 6 5 3 7 4 1 8 14 17 20 14 15 12 8 7 7 7 7 9 7 2 1 3
34 24 10 5 9 24 26 8 4 4 4 1 2 2 2 1 5 4 4 5 1 3 4 3 2 3 8 18 16 15 15 18 13 11 11 13 11 9 5 2 1 2 5 9
5 5 7 27 21 6 4 4 3 3 2 5 5 9 3 1 3 2 2 4 2 3 3 4 4 4 8 21 19 15 13 11 11 10 9 9 8 6 4 7 8 9 11 13
6 14 14 14 1 1 2 2 2 5 2 2 3 4 9 7 7 3 4 3 4 6 2 2 3 5 19 18 16 16 14 11 8 6 5 4 4 7 9 9 10 12 14 17
9 6 4 1 2 1 3 4 2 2 4 8 6 3 5 4 2 2 1 4 2 3 3 3 5 17 20 17 15 16 16 14 13 13 13 12 14 13 11 15 15 17 18 17
6 4 5 4 4 5 5 5 4 4 4 10 8 3 3 3 2 3 3 2 1 4 3 4 6 17 16 15 16 19 22 21 22 23 23 24 25 26 23 22 20 22 23 21
8 7 6 6 5 10 10 11 6 8 8 8 2 1 4 3 3 4 3 4 6 7 4 3 17 16 18 20 20 20 21 24 26 26 29 29 28 29 28 24 24 24 26 27
7 10 5 15 6 9 14 13 8 11 10 6 3 1 3 6 4 5 9 4 6 4 4 12 16 20 21 23 25 27 28 29 29 30 31 31 33 33 33 31 29 28 26 26
6 5 15 12 7 12 12 14 13 14 9 3 3 6 7 3 4 4 5 4 5 11 11 15 18 20 22 25 27 27 27 29 29 30 30 29 28 27 28 29 26 24 23 23
Wind_Direction
254 250 246 239 233 225 213 203 216 174 186 194 201 213 219 240 237 238 248 258 272 281 257 286 243 233 221 222 210 203 220 223 244 207 200 215 239 215 235 230 224 243 192 275
259 247 241 240 228 219 207 202 194 185 183 198 214 229 236 238 233 234 242 239 253 276 278 306 242 267 238 199 219 207 195 234 231 243 213 202 226 230 218 240 226 224 142 267
251 241 240 239 222 218 206 187 174 177 198 207 207 215 231 232 230 240 242 253 245 258 269 285 297 243 239 164 207 211 196 229 236 224 218 213 219 223 220 244 241 246 262 226
243 239 236 230 228 215 206 190 200 185 195 204 214 217 233 229 234 223 240 249 251 242 243 276 287 281 299 282 175 216 196 214 235 245 246 216 218 219 228 244 233 192 218 249
248 241 232 230 221 211 203 181 182 195 204 207 213 217 222 236 225 220 219 235 235 237 237 225 277 342 226 226 243 200 238 231 228 243 236 254 261 238 219 229 239 249 247 239
244 238 231 225 221 214 210 198 196 200 211 196 208 212 226 225 229 226 229 226 234 243 239 250 333 1 326 296 196 202 231 219 222 229 235 252 248 235 250 246 235 243 245 252
244 238 231 223 219 216 213 199 184 196 208 193 205 214 220 229 228 232 224 229 222 233 240 132 316 338 338 312 160 106 230 226 224 220 206 238 263 255 249 260 272 268 261 260
243 233 229 224 217 214 216 212 188 190 199 207 205 216 221 223 238 240 243 225 229 224 174 186 99 53 349 276 227 139 12 336 241 197 233 266 238 236 245 242 249 246 249 266
236 228 224 219 216 212 213 213 193 195 200 226 203 208 217 220 220 228 232 240 238 227 240 207 198 211 155 283 318 191 217 280 301 256 218 232 226 244 248 245 265 255 270 246
238 228 224 219 214 210 206 207 192 195 167 229 231 212 209 216 213 229 231 223 226 222 229 235 225 226 207 187 189 166 162 253 271 244 253 264 215 225 247 251 247 252 274 273
225 215 214 213 212 207 202 201 187 182 189 226 203 195 226 216 218 226 208 199 218 142 229 207 207 224 216 217 224 169 176 166 236 234 239 241 264 249 214 234 243 242 278 272
202 200 207 204 198 194 192 171 179 177 188 242 202 197 200 237 233 265 197 210 186 180 204 197 202 260 179 189 203 200 191 181 190 237 212 341 239 249 286 288 293 270 266 240
200 193 186 175 179 185 165 163 164 169 167 225 183 192 221 248 232 235 209 216 197 205 215 207 229 228 230 181 202 230 256 214 222 238 256 286 299 319 256 261 292 315 304 295
165 174 181 177 180 176 173 163 169 170 173 328 160 172 208 234 234 222 217 245 223 220 210 209 223 217 226 217 202 195 218 282 207 229 234 236 275 277 283 274 303 290 283 289
142 150 156 160 161 152 151 169 180 179 168 175 243 185 212 217 221 225 230 238 238 258 285 253 188 207 257 183 190 228 211 238 256 260 254 225 302 292 261 265 275 286 243 252
130 137 144 141 149 158 148 118 168 174 156 181 175 196 195 199 201 207 213 237 261 239 204 210 244 201 244 227 231 228 248 258 265 264 266 277 264 285 307 297 281 282 243 236
134 140 145 141 138 128 131 147 165 147 139 242 120 10 210 201 194 209 205 219 260 275 245 234 202 215 233 246 238 257 239 286 270 283 298 270 310 310 291 292 298 278 255 239
137 133 135 134 134 128 92 92 165 176 197 280 178 223 282 182 172 223 189 192 213 241 256 221 222 220 191 218 342 7 347 317 288 316 288 291 294 294 301 300 290 279 276 235
128 123 121 120 118 85 121 139 147 160 198 200 133 151 219 171 153 216 168 167 120 254 207 210 172 194 104 13 352 351 356 353 338 338 330 321 306 303 296 301 313 299 268 164
121 109 86 80 95 116 119 103 121 189 215 130 191 181 205 190 166 216 125 127 220 263 199 137 243 85 51 10 352 344 345 354 345 355 3 350 335 305 274 312 341 112 123 143
78 68 57 121 127 124 95 117 177 134 197 216 230 208 213 236 172 205 169 151 174 220 185 184 189 71 10 355 355 352 355 354 14 20 22 21 6 343 133 108 124 149 159 161
111 118 115 140 135 186 146 141 168 197 195 113 276 256 203 187 185 154 179 161 218 187 70 95 93 24 358 0 5 10 17 16 11 19 27 21 69 109 128 124 128 139 143 150
95 81 97 153 36 87 8 151 180 103 10 360 339 333 351 127 224 183 136 94 72 158 70 71 41 2 1 13 24 35 43 50 58 64 72 82 93 99 107 112 118 127 130 137
56 40 54 26 43 38 37 352 347 351 339 342 326 310 28 342 29 25 56 35 54 71 66 63 359 357 22 37 50 60 63 67 73 78 84 88 91 92 95 101 112 118 116 120
42 20 39 45 3 46 17 357 353 349 332 344 330 340 34 6 51 15 3 66 66 30 61 36 351 32 45 55 62 68 73 76 78 84 89 92 95 96 97 101 106 109 115 119
52 40 10 355 23 12 2 358 341 347 340 357 7 46 67 47 33 41 17 51 37 57 45 26 24 45 58 68 73 77 80 81 81 85 90 94 95 97 100 102 102 104 108 109
44 57 28 19 26 356 349 340 334 334 328 39 31 48 37 46 57 58 22 38 63 67 52 49 55 60 63 71 77 78 79 79 85 89 88 89 92 95 93 89 92 96 98 100
Height
1391 1395 1401 1408 1415 1425 1432 1435 1434 1439 1449 1458 1450 1442 1406 1422 1425 1430 1423 1424 1417 1409 1399 1401 1397 1400 1397 1396 1404 1407 1410 1417 1426 1418 1414 1418 1419 1426 1430 1443 1445 1437 1453 1448
1377 1382 1388 1394 1402 1411 1419 1421 1428 1434 1436 1437 1431 1426 1422 1425 1421 1420 1417 1416 1414 1410 1406 1415 1397 1398 1391 1391 1396 1397 1407 1417 1433 1426 1417 1413 1418 1416 1421 1423 1426 1438 1465 1447
1363 1369 1375 1380 1389 1399 1408 1412 1416 1422 1424 1422 1424 1419 1404 1405 1419 1421 1418 1412 1413 1413 1415 1411 1410 1401 1389 1391 1395 1397 1405 1411 1414 1425 1427 1414 1419 1414 1417 1421 1435 1436 1437 1432
1351 1357 1362 1369 1375 1385 1395 1394 1394 1392 1399 1405 1397 1409 1401 1409 1413 1417 1418 1413 1406 1407 1415 1418 1418 1406 1395 1393 1394 1396 1403 1410 1411 1407 1406 1404 1407 1409 1411 1413 1413 1433 1432 1421
1338 1344 1350 1357 1364 1374 1377 1376 1382 1386 1386 1399 1402 1401 1396 1398 1397 1406 1407 1407 1399 1401 1408 1416 1416 1418 1394 1401 1396 1397 1400 1408 1408 1411 1405 1403 1405 1401 1402 1405 1406 1406 1406 1408
1323 1329 1337 1344 1353 1362 1361 1365 1373 1378 1377 1386 1395 1391 1383 1383 1396 1397 1399 1402 1403 1400 1399 1411 1421 1423 1417 1405 1392 1398 1402 1401 1406 1413 1407 1407 1412 1398 1395 1395 1395 1398 1406 1400
1305 1313 1321 1329 1339 1346 1353 1348 1363 1371 1367 1374 1375 1381 1383 1384 1390 1391 1391 1397 1400 1395 1404 1407 1421 1419 1420 1417 1396 1392 1395 1398 1403 1415 1422 1423 1393 1387 1390 1395 1394 1392 1392 1392
1287 1294 1303 1313 1324 1334 1344 1344 1351 1359 1364 1363 1370 1373 1378 1384 1389 1388 1389 1386 1387 1399 1405 1409 1421 1427 1431 1421 1396 1393 1399 1406 1411 1413 1414 1401 1390 1389 1392 1396 1397 1391 1392 1390
1269 1277 1287 1297 1310 1322 1336 1338 1346 1355 1360 1357 1358 1365 1370 1375 1382 1388 1381 1384 1387 1392 1394 1401 1411 1420 1418 1420 1400 1397 1402 1409 1419 1409 1414 1414 1395 1387 1385 1389 1401 1387 1386 1385
1251 1260 1271 1283 1296 1310 1325 1330 1340 1349 1355 1356 1357 1357 1365 1371 1376 1376 1376 1379 1384 1386 1387 1392 1398 1398 1392 1399 1406 1412 1415 1424 1424 1414 1408 1391 1380 1383 1386 1401 1403 1385 1385 1383
1231 1243 1256 1270 1284 1300 1317 1321 1334 1340 1352 1353 1356 1362 1364 1367 1370 1372 1369 1380 1383 1389 1388 1388 1388 1391 1386 1384 1384 1399 1407 1418 1419 1410 1409 1407 1376 1377 1386 1382 1379 1382 1383 1382
1227 1237 1247 1258 1273 1290 1304 1316 1330 1342 1353 1354 1355 1358 1361 1365 1367 1369 1367 1372 1375 1381 1384 1377 1382 1381 1378 1377 1384 1382 1398 1396 1405 1392 1387 1381 1376 1377 1375 1376 1377 1379 1379 1379
1224 1234 1244 1249 1270 1289 1300 1315 1327 1339 1346 1355 1355 1357 1360 1358 1362 1366 1363 1365 1371 1375 1376 1375 1375 1375 1371 1381 1378 1378 1380 1386 1389 1388 1379 1382 1381 1381 1378 1378 1379 1378 1377 1377
1222 1234 1247 1260 1274 1291 1305 1315 1328 1338 1350 1349 1352 1351 1356 1359 1361 1361 1362 1367 1366 1370 1370 1368 1373 1374 1367 1372 1372 1372 1375 1375 1378 1376 1375 1375 1375 1379 1375 1374 1373 1376 1377 1378
1233 1244 1256 1269 1283 1295 1308 1322 1331 1340 1348 1349 1352 1352 1355 1357 1356 1358 1361 1363 1366 1367 1368 1369 1367 1367 1367 1363 1368 1368 1367 1372 1376 1376 1372 1375 1377 1376 1376 1378 1376 1375 1373 1374
1252 1260 1270 1281 1292 1302 1312 1326 1337 1342 1347 1350 1351 1351 1351 1353 1355 1357 1362 1365 1364 1366 1368 1367 1363 1360 1364 1369 1367 1367 1367 1369 1370 1369 1371 1372 1373 1372 1372 1372 1371 1372 1369 1370
1267 1275 1284 1293 1303 1312 1320 1326 1330 1340 1345 1347 1348 1348 1349 1350 1354 1357 1360 1363 1362 1366 1366 1361 1360 1361 1362 1366 1369 1364 1364 1365 1366 1366 1367 1366 1367 1368 1368 1369 1369 1369 1368 1368
1281 1288 1297 1305 1312 1318 1324 1328 1333 1341 1346 1347 1347 1351 1349 1350 1352 1356 1357 1360 1364 1366 1368 1360 1359 1358 1359 1365 1367 1369 1368 1364 1364 1364 1365 1367 1367 1367 1368 1368 1367 1367 1368 1367
1292 1298 1304 1311 1321 1326 1332 1336 1341 1344 1350 1347 1350 1349 1348 1351 1351 1353 1355 1357 1365 1367 1355 1354 1356 1356 1366 1381 1380 1377 1375 1372 1369 1366 1366 1367 1368 1367 1367 1366 1367 1367 1367 1369
1306 1312 1316 1323 1329 1333 1336 1343 1345 1346 1345 1347 1348 1346 1348 1352 1351 1351 1352 1355 1363 1353 1351 1350 1354 1373 1383 1385 1382 1379 1375 1373 1371 1367 1367 1368 1367 1367 1367 1368 1368 1368 1370 1371
1314 1318 1324 1330 1334 1336 1339 1343 1344 1346 1348 1345 1343 1343 1344 1347 1350 1349 1348 1355 1359 1353 1347 1353 1352 1380 1387 1385 1382 1378 1373 1372 1370 1370 1369 1369 1368 1367 1366 1366 1365 1366 1370 1372
1316 1320 1329 1334 1336 1337 1338 1340 1342 1341 1337 1341 1340 1340 1340 1344 1343 1347 1349 1350 1355 1345 1354 1359 1368 1391 1390 1387 1383 1378 1374 1372 1370 1369 1369 1368 1367 1366 1366 1367 1369 1371 1373 1378
1325 1328 1333 1335 1337 1336 1335 1337 1336 1338 1344 1344 1343 1341 1337 1338 1339 1336 1335 1336 1343 1350 1356 1373 1391 1394 1391 1386 1383 1381 1377 1375 1373 1372 1370 1369 1369 1370 1370 1372 1374 1375 1377 1383
1329 1332 1335 1339 1345 1350 1354 1353 1349 1350 1350 1347 1344 1341 1340 1340 1337 1337 1335 1345 1347 1352 1367 1391 1401 1397 1395 1391 1387 1385 1383 1382 1381 1379 1378 1377 1377 1377 1378 1380 1382 1383 1385 1389
1338 1342 1348 1354 1360 1361 1360 1357 1353 1352 1348 1348 1346 1344 1343 1343 1343 1349 1346 1351 1370 1381 1394 1404 1405 1401 1398 1394 1392 1391 1390 1389 1388 1388 1387 1386 1386 1386 1388 1390 1392 1393 1395 1398
1353 1362 1363 1365 1361 1363 1361 1360 1356 1353 1349 1346 1346 1345 1347 1354 1360 1362 1372 1376 1391 1404 1410 1412 1409 1405 1403 1401 1399 1398 1397 1396 1396 1396 1396 1396 1395 1396 1398 1400 1402 1405 1407 1409
1367 1374 1376 1373 1371 1369 1365 1361 1358 1353 1352 1350 1352 1357 1366 1366 1375 1389 1399 1405 1413 1415 1416 1414 1413 1411 1409 1407 1405 1405 1404 1404 1404 1404 1405 1406 1407 1408 1408 1409 1413 1415 1417 1418